This is the latest recevied weather packets stored in our database for station/object SP1BMW-13. If no packets are shown the sender has not sent any weather packets the latest 10 day(s).
| Time | Temp. | Humidity | Pressure | Rain* | Wind** | Luminosity | Snow |
|---|---|---|---|---|---|---|---|
| 1788098378 | 26.67° C | 43% | 1007.8 hPa | 0 mm | 1.34 m/s, 34° | 542 W/m² | - |
| 1788098318 | 26.67° C | 44% | 1007.6 hPa | 0 mm | 0.89 m/s, 283° | 168 W/m² | - |
| 1788098258 | 27.22° C | 44% | 1007.9 hPa | 0 mm | 1.79 m/s, 225° | 149 W/m² | - |
| 1788098198 | 27.22° C | 44% | 1007.9 hPa | 0 mm | 0.45 m/s, 199° | 159 W/m² | - |
| 1788098138 | 27.22° C | 44% | 1007.8 hPa | 0 mm | 1.79 m/s, 273° | 307 W/m² | - |
| 1788098081 | 27.22° C | 45% | 1007.8 hPa | 0 mm | 0.45 m/s, 116° | 274 W/m² | - |
| 1788098019 | 27.22° C | 45% | 1007.7 hPa | 0 mm | 1.79 m/s, 257° | 172 W/m² | - |
| 1788097961 | 27.22° C | 44% | 1007.7 hPa | 0 mm | 1.34 m/s, 206° | 530 W/m² | - |
| 1788097909 | 27.22° C | 45% | 1007.7 hPa | 0 mm | 0.89 m/s, 242° | 513 W/m² | - |
| 1788097838 | 27.22° C | 46% | 1007.7 hPa | 0 mm | 1.34 m/s, 67° | 142 W/m² | - |
| 1788097778 | 27.22° C | 46% | 1007.6 hPa | 0 mm | 0.89 m/s, 45° | 139 W/m² | - |
| 1788097718 | 27.22° C | 45% | 1007.7 hPa | 0 mm | 2.68 m/s, 96° | 193 W/m² | - |
| 1788097660 | 27.22° C | 46% | 1007.9 hPa | 0 mm | 2.24 m/s, 302° | 515 W/m² | - |
| 1788097600 | 27.22° C | 46% | 1007.6 hPa | 0 mm | 0.89 m/s, 347° | 498 W/m² | - |
| 1788097540 | 27.22° C | 46% | 1007.6 hPa | 0 mm | 2.24 m/s, 1° | 491 W/m² | - |
| 1788097478 | 27.22° C | 46% | 1007.6 hPa | 0 mm | 1.34 m/s, 296° | 485 W/m² | - |
| 1788097421 | 26.67° C | 46% | 1007.6 hPa | 0 mm | 1.79 m/s, 283° | 485 W/m² | - |
| 1788097358 | 26.67° C | 46% | 1007.8 hPa | 0 mm | 0.89 m/s, 279° | 487 W/m² | - |
| 1788097297 | 26.67° C | 46% | 1007.8 hPa | 0 mm | 3.13 m/s, 245° | 493 W/m² | - |
| 1788097239 | 26.67° C | 46% | 1007.7 hPa | 0 mm | 2.24 m/s, 273° | 500 W/m² | - |
| 1788097178 | 26.67° C | 46% | 1007.6 hPa | 0 mm | 1.34 m/s, 271° | 513 W/m² | - |
| 1788097117 | 26.67° C | 48% | 1007.9 hPa | 0 mm | 2.24 m/s, 264° | 523 W/m² | - |
| 1788097057 | 26.67° C | 48% | 1007.7 hPa | 0 mm | 0.45 m/s, 318° | 513 W/m² | - |
| 1788096998 | 26.67° C | 47% | 1007.9 hPa | 0 mm | 1.34 m/s, 166° | 370 W/m² | - |
| 1788096938 | 26.67° C | 47% | 1007.8 hPa | 0 mm | 3.13 m/s, 274° | 529 W/m² | - |
* Rain latest hour (hover to see other rain measurements)
** Current wind speed in m/s (hover to see current wind gust speed)